STARLINK-1911 (46749 NORAD) Tracking and Keplerian Element Data

This shows tracking and keplerian element data for the satellite.

Feedback or suggestion? Click here.




ElementValue
Catalog46749
NameSTARLINK-1911
Epoch Orbit181
Epoch Day20.91667824
Epoch Year2021
RAAN93.307
Inclination53.0533
Eccentricity0.0001299
Argument of Perigee71.9816
Mean Anonmoly262.9533
Mean Motion15.06400871
Decay Rate-0.00024247
L11 46749U 20074L 21020.91667824 -.00024247 00000-0 -16144-2 0 9990
L22 46749 53.0533 93.3070 0001299 71.9816 262.9533 15.06400871 1818

Live tracking and technical data element details for STARLINK-1911 (NORAD 46749). STARLINK-1911 can be tracked NOW for your location showing map with azimuth and elevation plus other details from your city location.

Track the satellite on the map from your city or location and see movement details for azimuth, elevation, latitude, longitude, range, height, and movement on the map or in text.







IsCatalogInMostPopularTable: catalog: 46749, numindb: 27
Update: records affected: 1



GetName: 46749 STARLINK-1911

Hit Count: updated at: Fri, 22 Jan 2021 18:36:41 GMT